QPF
0.03 0.03 0.02 0.01 0.02 0.02 0.02 0.03 0.03 0.02 0.03 0.02 0.03 0.04 0.06 0.05 0.05 0.07 0.07 0.06 0.09 0.14 0.17 0.17 0.16 0.22 0.24 0.24 0.33 0.37 0.38 0.39 0.40 0.39 0.36 0.36 0.30 0.22 0.15 0.12 0.10 0.09 0.07 0.06
0.03 0.03 0.01 0.01 0.01 0.02 0.03 0.04 0.04 0.03 0.02 0.03 0.05 0.05 0.03 0.03 0.05 0.07 0.08 0.08 0.09 0.11 0.14 0.14 0.14 0.17 0.23 0.24 0.30 0.37 0.38 0.38 0.38 0.37 0.35 0.36 0.37 0.29 0.21 0.17 0.14 0.12 0.10 0.08
0.04 0.03 0.02 0.02 0.02 0.02 0.02 0.04 0.04 0.03 0.02 0.03 0.04 0.04 0.04 0.04 0.06 0.07 0.08 0.09 0.09 0.08 0.09 0.11 0.12 0.15 0.19 0.24 0.28 0.34 0.39 0.40 0.39 0.38 0.39 0.38 0.40 0.35 0.28 0.21 0.18 0.14 0.11 0.10
0.03 0.02 0.02 0.03 0.03 0.02 0.04 0.02 0.03 0.03 0.05 0.05 0.05 0.09 0.07 0.06 0.05 0.06 0.07 0.09 0.08 0.06 0.05 0.07 0.09 0.12 0.16 0.20 0.23 0.28 0.34 0.37 0.40 0.39 0.40 0.39 0.39 0.37 0.30 0.25 0.21 0.19 0.16 0.14
0.02 0.02 0.02 0.03 0.03 0.03 0.04 0.02 0.02 0.03 0.05 0.05 0.04 0.10 0.09 0.04 0.05 0.06 0.06 0.06 0.06 0.06 0.06 0.06 0.07 0.09 0.12 0.15 0.19 0.22 0.29 0.34 0.38 0.39 0.38 0.39 0.36 0.37 0.35 0.29 0.24 0.20 0.17 0.15
0.01 0.02 0.03 0.02 0.02 0.02 0.03 0.02 0.03 0.04 0.05 0.05 0.03 0.09 0.10 0.04 0.05 0.04 0.04 0.04 0.05 0.05 0.05 0.04 0.05 0.06 0.08 0.09 0.13 0.18 0.21 0.26 0.30 0.34 0.37 0.40 0.37 0.35 0.33 0.31 0.28 0.25 0.23 0.20
0.03 0.03 0.03 0.02 0.03 0.03 0.02 0.05 0.07 0.07 0.07 0.05 0.03 0.06 0.07 0.03 0.02 0.03 0.03 0.03 0.04 0.04 0.04 0.03 0.04 0.05 0.06 0.08 0.09 0.11 0.15 0.20 0.23 0.25 0.28 0.32 0.35 0.33 0.31 0.30 0.28 0.25 0.24 0.23
0.05 0.05 0.03 0.02 0.04 0.05 0.04 0.06 0.09 0.08 0.05 0.05 0.05 0.07 0.05 0.03 0.02 0.02 0.03 0.04 0.04 0.04 0.04 0.04 0.05 0.06 0.08 0.07 0.07 0.08 0.11 0.15 0.19 0.19 0.21 0.23 0.27 0.29 0.25 0.23 0.24 0.24 0.22 0.21
0.05 0.04 0.02 0.02 0.03 0.03 0.04 0.04 0.03 0.05 0.05 0.07 0.07 0.05 0.04 0.02 0.02 0.02 0.03 0.04 0.05 0.04 0.05 0.05 0.05 0.06 0.09 0.09 0.08 0.07 0.08 0.12 0.17 0.17 0.17 0.17 0.21 0.23 0.23 0.20 0.18 0.20 0.21 0.22
0.03 0.04 0.02 0.02 0.03 0.02 0.02 0.02 0.03 0.07 0.08 0.09 0.06 0.05 0.05 0.03 0.03 0.03 0.03 0.04 0.04 0.04 0.04 0.05 0.05 0.06 0.08 0.09 0.08 0.07 0.07 0.08 0.11 0.13 0.13 0.14 0.16 0.17 0.18 0.19 0.18 0.17 0.18 0.20
0.01 0.03 0.03 0.03 0.03 0.03 0.03 0.02 0.02 0.03 0.04 0.07 0.05 0.06 0.06 0.04 0.04 0.03 0.03 0.04 0.05 0.05 0.05 0.04 0.04 0.05 0.06 0.07 0.06 0.06 0.06 0.07 0.07 0.08 0.08 0.09 0.11 0.11 0.11 0.12 0.13 0.12 0.12 0.13
0.01 0.02 0.02 0.01 0.01 0.00 0.01 0.02 0.01 0.03 0.03 0.03 0.04 0.06 0.06 0.05 0.05 0.04 0.03 0.04 0.04 0.04 0.04 0.04 0.03 0.03 0.03 0.03 0.03 0.04 0.04 0.04 0.05 0.05 0.04 0.05 0.07 0.08 0.08 0.08 0.07 0.08 0.09 0.09
0.02 0.02 0.03 0.03 0.02 0.01 0.01 0.01 0.01 0.01 0.03 0.02 0.03 0.05 0.07 0.05 0.05 0.04 0.03 0.03 0.03 0.04 0.03 0.03 0.03 0.02 0.02 0.02 0.03 0.03 0.03 0.03 0.03 0.03 0.03 0.03 0.03 0.04 0.04 0.05 0.04 0.04 0.05 0.05
0.01 0.01 0.02 0.04 0.03 0.02 0.01 0.00 0.00 0.01 0.02 0.02 0.03 0.05 0.06 0.05 0.03 0.02 0.02 0.02 0.02 0.03 0.03 0.03 0.03 0.02 0.01 0.02 0.02 0.02 0.02 0.02 0.02 0.02 0.02 0.03 0.03 0.03 0.02 0.02 0.02 0.03 0.03 0.03
0.01 0.01 0.01 0.01 0.00 0.00 0.00 0.00 0.00 0.00 0.01 0.02 0.02 0.03 0.04 0.03 0.02 0.01 0.01 0.01 0.01 0.02 0.01 0.01 0.01 0.01 0.01 0.02 0.01 0.01 0.01 0.01 0.01 0.01 0.01 0.01 0.02 0.01 0.01 0.01 0.01 0.01 0.02 0.03
0.00 0.01 0.00 0.00 0.00 0.00 0.00 0.00 0.00 0.00 0.00 0.01 0.01 0.01 0.01 0.01 0.01 0.01 0.01 0.01 0.01 0.01 0.01 0.01 0.01 0.01 0.01 0.01 0.02 0.02 0.01 0.01 0.01 0.01 0.01 0.01 0.01 0.01 0.01 0.01 0.01 0.01 0.01 0.01
0.00 0.00 0.00 0.00 0.00 0.00 0.00 0.00 0.00 0.00 0.00 0.00 0.01 0.01 0.00 0.00 0.00 0.00 0.00 0.01 0.01 0.01 0.01 0.01 0.01 0.01 0.01 0.01 0.02 0.02 0.02 0.02 0.02 0.01 0.01 0.01 0.01 0.01 0.01 0.01 0.01 0.01 0.01 0.01
0.00 0.00 0.00 0.00 0.00 0.00 0.00 0.00 0.00 0.00 0.00 0.00 0.00 0.00 0.00 0.00 0.00 0.00 0.00 0.00 0.00 0.00 0.00 0.00 0.00 0.01 0.01 0.01 0.01 0.02 0.02 0.02 0.02 0.02 0.02 0.02 0.02 0.01 0.01 0.00 0.01 0.01 0.01 0.01
0.00 0.00 0.00 0.00 0.00 0.00 0.00 0.00 0.00 0.00 0.00 0.00 0.00 0.00 0.00 0.00 0.00 0.00 0.00 0.00 0.00 0.00 0.00 0.00 0.00 0.00 0.00 0.00 0.00 0.00 0.01 0.01 0.02 0.02 0.01 0.01 0.02 0.02 0.01 0.00 0.00 0.00 0.00 0.00
0.00 0.00 0.00 0.00 0.00 0.00 0.00 0.00 0.00 0.00 0.00 0.00 0.00 0.00 0.00 0.00 0.00 0.00 0.00 0.00 0.00 0.00 0.00 0.00 0.00 0.00 0.00 0.00 0.00 0.00 0.00 0.01 0.01 0.02 0.01 0.01 0.02 0.03 0.03 0.01 0.00 0.00 0.01 0.01
0.00 0.00 0.00 0.00 0.00 0.00 0.00 0.00 0.00 0.00 0.00 0.00 0.00 0.00 0.00 0.00 0.00 0.00 0.00 0.00 0.00 0.00 0.00 0.00 0.00 0.00 0.00 0.00 0.00 0.00 0.00 0.00 0.00 0.01 0.01 0.01 0.01 0.02 0.04 0.04 0.03 0.02 0.02 0.02
0.00 0.00 0.00 0.00 0.00 0.00 0.00 0.00 0.00 0.00 0.00 0.00 0.00 0.00 0.00 0.00 0.00 0.00 0.00 0.00 0.00 0.00 0.00 0.00 0.00 0.00 0.00 0.00 0.00 0.00 0.00 0.00 0.00 0.00 0.00 0.01 0.01 0.01 0.02 0.03 0.04 0.04 0.04 0.02
0.00 0.00 0.00 0.00 0.00 0.00 0.00 0.00 0.00 0.00 0.00 0.00 0.00 0.00 0.00 0.00 0.00 0.00 0.00 0.00 0.00 0.00 0.00 0.00 0.00 0.00 0.00 0.00 0.00 0.00 0.00 0.00 0.00 0.00 0.00 0.00 0.00 0.00 0.01 0.01 0.01 0.02 0.03 0.03
0.00 0.00 0.00 0.00 0.00 0.00 0.00 0.00 0.00 0.00 0.00 0.00 0.00 0.00 0.00 0.00 0.00 0.00 0.00 0.00 0.00 0.00 0.00 0.00 0.00 0.00 0.00 0.00 0.00 0.00 0.00 0.00 0.00 0.00 0.00 0.00 0.00 0.00 0.00 0.01 0.01 0.01 0.02 0.02
0.00 0.00 0.00 0.00 0.00 0.00 0.00 0.00 0.00 0.00 0.00 0.00 0.00 0.00 0.00 0.00 0.00 0.00 0.00 0.00 0.00 0.00 0.00 0.00 0.00 0.00 0.00 0.00 0.00 0.00 0.00 0.00 0.00 0.00 0.00 0.01 0.01 0.01 0.01 0.01 0.01 0.01 0.01 0.01
0.00 0.00 0.00 0.00 0.00 0.00 0.00 0.00 0.00 0.00 0.00 0.00 0.00 0.00 0.00 0.00 0.00 0.00 0.00 0.00 0.00 0.00 0.00 0.00 0.00 0.00 0.00 0.00 0.00 0.00 0.00 0.01 0.01 0.00 0.01 0.01 0.01 0.01 0.01 0.01 0.01 0.01 0.01 0.02
MSLP
1015.31 1015.50 1015.58 1015.54 1015.37 1015.08 1014.68 1014.17 1013.58 1012.92 1012.20 1011.44 1010.64 1009.84 1009.05 1008.31 1007.66 1007.13 1006.74 1006.50 1006.40 1006.42 1006.53 1006.69 1006.87 1007.03 1007.18 1007.31 1007.45 1007.61 1007.82 1008.09 1008.42 1008.79 1009.19 1009.59 1009.96 1010.29 1010.57 1010.82 1011.06 1011.31 1011.60 1011.95
1015.25 1015.42 1015.51 1015.51 1015.40 1015.17 1014.81 1014.33 1013.71 1012.98 1012.13 1011.20 1010.22 1009.23 1008.28 1007.43 1006.73 1006.22 1005.90 1005.79 1005.85 1006.03 1006.29 1006.57 1006.84 1007.05 1007.21 1007.33 1007.43 1007.55 1007.72 1007.95 1008.26 1008.62 1009.01 1009.41 1009.78 1010.12 1010.41 1010.66 1010.89 1011.14 1011.41 1011.74
1015.10 1015.25 1015.34 1015.37 1015.30 1015.13 1014.83 1014.37 1013.74 1012.94 1012.00 1010.94 1009.80 1008.67 1007.60 1006.67 1005.95 1005.46 1005.23 1005.23 1005.42 1005.75 1006.14 1006.53 1006.86 1007.12 1007.29 1007.39 1007.47 1007.55 1007.69 1007.89 1008.17 1008.51 1008.89 1009.29 1009.66 1010.01 1010.30 1010.56 1010.79 1011.04 1011.31 1011.62
1014.86 1014.97 1015.06 1015.09 1015.07 1014.94 1014.68 1014.25 1013.62 1012.80 1011.80 1010.66 1009.44 1008.23 1007.10 1006.16 1005.44 1005.01 1004.86 1004.96 1005.26 1005.69 1006.17 1006.63 1007.00 1007.27 1007.44 1007.52 1007.57 1007.62 1007.72 1007.89 1008.14 1008.45 1008.82 1009.21 1009.58 1009.92 1010.22 1010.49 1010.74 1010.98 1011.25 1011.54
1014.51 1014.59 1014.65 1014.69 1014.67 1014.57 1014.34 1013.94 1013.34 1012.53 1011.53 1010.39 1009.17 1007.97 1006.87 1005.97 1005.33 1004.97 1004.90 1005.09 1005.46 1005.95 1006.46 1006.93 1007.30 1007.55 1007.68 1007.73 1007.74 1007.75 1007.81 1007.95 1008.16 1008.45 1008.79 1009.16 1009.52 1009.85 1010.16 1010.44 1010.69 1010.94 1011.20 1011.48
1014.05 1014.08 1014.11 1014.13 1014.11 1014.02 1013.81 1013.45 1012.89 1012.14 1011.21 1010.15 1009.02 1007.93 1006.94 1006.16 1005.63 1005.38 1005.40 1005.65 1006.06 1006.55 1007.04 1007.47 1007.78 1007.97 1008.05 1008.05 1008.00 1007.97 1007.99 1008.08 1008.26 1008.51 1008.81 1009.14 1009.47 1009.80 1010.09 1010.37 1010.63 1010.88 1011.13 1011.40
1013.47 1013.47 1013.46 1013.44 1013.40 1013.31 1013.12 1012.79 1012.30 1011.65 1010.84 1009.94 1008.99 1008.09 1007.30 1006.70 1006.34 1006.22 1006.33 1006.63 1007.04 1007.49 1007.91 1008.24 1008.46 1008.56 1008.55 1008.47 1008.37 1008.29 1008.27 1008.32 1008.44 1008.64 1008.89 1009.18 1009.47 1009.75 1010.03 1010.29 1010.53 1010.78 1011.02 1011.28
1012.80 1012.76 1012.71 1012.65 1012.58 1012.47 1012.29 1012.01 1011.60 1011.08 1010.45 1009.75 1009.05 1008.40 1007.87 1007.52 1007.35 1007.39 1007.59 1007.91 1008.29 1008.67 1008.98 1009.19 1009.29 1009.27 1009.17 1009.02 1008.86 1008.74 1008.67 1008.67 1008.75 1008.89 1009.08 1009.30 1009.53 1009.76 1009.98 1010.20 1010.42 1010.64 1010.87 1011.09
1012.07 1012.00 1011.91 1011.81 1011.70 1011.57 1011.39 1011.16 1010.85 1010.47 1010.03 1009.58 1009.16 1008.80 1008.56 1008.47 1008.52 1008.71 1009.00 1009.34 1009.68 1009.97 1010.16 1010.25 1010.21 1010.09 1009.90 1009.68 1009.48 1009.32 1009.21 1009.18 1009.21 1009.29 1009.40 1009.53 1009.68 1009.83 1009.99 1010.15 1010.31 1010.49 1010.67 1010.87
1011.36 1011.26 1011.13 1010.99 1010.84 1010.68 1010.51 1010.32 1010.10 1009.86 1009.63 1009.42 1009.27 1009.21 1009.26 1009.42 1009.68 1010.02 1010.38 1010.74 1011.04 1011.24 1011.33 1011.29 1011.16 1010.94 1010.69 1010.44 1010.21 1010.03 1009.91 1009.85 1009.83 1009.85 1009.88 1009.92 1009.97 1010.02 1010.08 1010.15 1010.25 1010.36 1010.49 1010.63
1010.72 1010.60 1010.44 1010.27 1010.09 1009.91 1009.74 1009.58 1009.44 1009.33 1009.27 1009.27 1009.37 1009.57 1009.86 1010.25 1010.69 1011.15 1011.59 1011.96 1012.22 1012.36 1012.36 1012.25 1012.05 1011.79 1011.52 1011.26 1011.04 1010.88 1010.76 1010.69 1010.63 1010.58 1010.53 1010.48 1010.41 1010.35 1010.29 1010.26 1010.26 1010.29 1010.35 1010.43
1010.21 1010.08 1009.90 1009.71 1009.51 1009.32 1009.15 1009.02 1008.94 1008.92 1009.00 1009.17 1009.45 1009.85 1010.34 1010.89 1011.47 1012.03 1012.52 1012.89 1013.14 1013.24 1013.21 1013.06 1012.84 1012.59 1012.34 1012.12 1011.94 1011.81 1011.72 1011.65 1011.57 1011.46 1011.33 1011.18 1011.00 1010.81 1010.64 1010.50 1010.40 1010.33 1010.32 1010.33
1009.86 1009.73 1009.56 1009.36 1009.16 1008.97 1008.81 1008.70 1008.66 1008.71 1008.87 1009.15 1009.56 1010.08 1010.69 1011.35 1012.01 1012.63 1013.15 1013.54 1013.79 1013.89 1013.85 1013.72 1013.53 1013.32 1013.13 1012.98 1012.87 1012.80 1012.75 1012.68 1012.58 1012.44 1012.24 1011.99 1011.70 1011.41 1011.12 1010.87 1010.67 1010.51 1010.42 1010.37
1009.69 1009.57 1009.41 1009.24 1009.06 1008.90 1008.76 1008.67 1008.66 1008.74 1008.94 1009.27 1009.73 1010.31 1010.97 1011.68 1012.37 1013.01 1013.55 1013.95 1014.21 1014.33 1014.33 1014.24 1014.12 1013.99 1013.89 1013.82 1013.79 1013.79 1013.77 1013.72 1013.61 1013.43 1013.18 1012.85 1012.48 1012.09 1011.70 1011.36 1011.06 1010.83 1010.67 1010.57
1009.67 1009.58 1009.46 1009.34 1009.21 1009.09 1008.98 1008.92 1008.93 1009.03 1009.24 1009.57 1010.03 1010.61 1011.26 1011.95 1012.64 1013.27 1013.81 1014.21 1014.49 1014.65 1014.70 1014.68 1014.64 1014.61 1014.59 1014.61 1014.66 1014.71 1014.73 1014.70 1014.58 1014.38 1014.07 1013.69 1013.25 1012.79 1012.34 1011.92 1011.55 1011.26 1011.05 1010.91
1009.78 1009.72 1009.67 1009.61 1009.55 1009.49 1009.45 1009.43 1009.46 1009.56 1009.76 1010.07 1010.50 1011.02 1011.63 1012.27 1012.92 1013.51 1014.03 1014.44 1014.73 1014.93 1015.04 1015.09 1015.13 1015.18 1015.25 1015.33 1015.44 1015.52 1015.57 1015.54 1015.42 1015.19 1014.86 1014.45 1013.97 1013.47 1012.97 1012.50 1012.09 1011.76 1011.50 1011.33
1009.97 1009.96 1009.98 1010.01 1010.03 1010.06 1010.08 1010.11 1010.18 1010.29 1010.47 1010.75 1011.12 1011.58 1012.11 1012.69 1013.27 1013.82 1014.30 1014.70 1015.01 1015.24 1015.40 1015.51 1015.61 1015.72 1015.83 1015.96 1016.09 1016.18 1016.23 1016.20 1016.06 1015.83 1015.49 1015.06 1014.57 1014.06 1013.54 1013.05 1012.62 1012.26 1011.97 1011.76
1010.22 1010.27 1010.35 1010.47 1010.59 1010.70 1010.80 1010.90 1011.00 1011.13 1011.31 1011.55 1011.87 1012.26 1012.72 1013.22 1013.73 1014.22 1014.67 1015.05 1015.37 1015.61 1015.80 1015.95 1016.08 1016.21 1016.34 1016.47 1016.58 1016.67 1016.69 1016.64 1016.49 1016.25 1015.92 1015.50 1015.03 1014.52 1014.01 1013.53 1013.09 1012.71 1012.39 1012.15
1010.51 1010.60 1010.75 1010.94 1011.14 1011.34 1011.53 1011.69 1011.84 1012.00 1012.18 1012.40 1012.68 1013.01 1013.41 1013.83 1014.28 1014.72 1015.12 1015.48 1015.78 1016.03 1016.22 1016.38 1016.51 1016.63 1016.75 1016.85 1016.93 1016.97 1016.96 1016.88 1016.72 1016.47 1016.15 1015.76 1015.32 1014.85 1014.37 1013.90 1013.45 1013.06 1012.71 1012.42
1010.84 1010.96 1011.15 1011.39 1011.66 1011.93 1012.18 1012.41 1012.61 1012.80 1013.00 1013.21 1013.47 1013.76 1014.10 1014.47 1014.86 1015.25 1015.61 1015.94 1016.22 1016.45 1016.64 1016.78 1016.89 1016.98 1017.05 1017.09 1017.12 1017.10 1017.05 1016.93 1016.76 1016.52 1016.22 1015.87 1015.47 1015.04 1014.60 1014.15 1013.71 1013.29 1012.91 1012.57
1011.21 1011.33 1011.54 1011.81 1012.11 1012.43 1012.73 1013.00 1013.25 1013.48 1013.70 1013.92 1014.17 1014.44 1014.74 1015.07 1015.41 1015.76 1016.08 1016.38 1016.63 1016.84 1016.99 1017.10 1017.18 1017.21 1017.22 1017.21 1017.17 1017.10 1016.99 1016.85 1016.66 1016.44 1016.17 1015.85 1015.51 1015.12 1014.72 1014.29 1013.85 1013.42 1012.99 1012.59
1011.62 1011.73 1011.92 1012.18 1012.50 1012.83 1013.16 1013.47 1013.75 1014.01 1014.26 1014.50 1014.74 1015.00 1015.28 1015.58 1015.89 1016.19 1016.48 1016.74 1016.96 1017.13 1017.26 1017.33 1017.35 1017.33 1017.28 1017.21 1017.10 1016.98 1016.83 1016.66 1016.47 1016.26 1016.02 1015.75 1015.45 1015.12 1014.75 1014.34 1013.91 1013.45 1012.98 1012.51
1012.06 1012.12 1012.28 1012.52 1012.81 1013.14 1013.48 1013.81 1014.12 1014.41 1014.68 1014.94 1015.19 1015.45 1015.72 1015.99 1016.27 1016.54 1016.79 1017.01 1017.19 1017.33 1017.41 1017.43 1017.41 1017.34 1017.23 1017.10 1016.94 1016.77 1016.59 1016.40 1016.21 1016.01 1015.80 1015.58 1015.33 1015.04 1014.70 1014.33 1013.89 1013.42 1012.91 1012.38
1012.49 1012.50 1012.61 1012.81 1013.08 1013.39 1013.73 1014.07 1014.40 1014.72 1015.01 1015.29 1015.56 1015.82 1016.07 1016.32 1016.57 1016.80 1017.01 1017.18 1017.32 1017.41 1017.45 1017.43 1017.36 1017.24 1017.09 1016.90 1016.70 1016.50 1016.29 1016.09 1015.90 1015.72 1015.54 1015.35 1015.14 1014.89 1014.60 1014.24 1013.82 1013.34 1012.80 1012.22
1012.87 1012.83 1012.89 1013.06 1013.30 1013.60 1013.94 1014.30 1014.65 1015.00 1015.32 1015.62 1015.89 1016.15 1016.39 1016.62 1016.82 1017.01 1017.17 1017.29 1017.38 1017.42 1017.40 1017.34 1017.22 1017.06 1016.86 1016.64 1016.41 1016.17 1015.95 1015.74 1015.55 1015.38 1015.22 1015.06 1014.89 1014.68 1014.42 1014.09 1013.69 1013.21 1012.67 1012.06
1013.14 1013.07 1013.11 1013.26 1013.50 1013.81 1014.16 1014.54 1014.93 1015.30 1015.65 1015.97 1016.26 1016.51 1016.73 1016.92 1017.09 1017.22 1017.32 1017.38 1017.41 1017.39 1017.32 1017.20 1017.03 1016.83 1016.59 1016.33 1016.07 1015.81 1015.56 1015.35 1015.16 1014.99 1014.85 1014.72 1014.57 1014.40 1014.17 1013.88 1013.51 1013.05 1012.51 1011.91
Thickness
5498 5491 5491 5497 5500 5501 5503 5503 5504 5513 5521 5520 5522 5528 5536 5541 5545 5550 5557 5563 5571 5579 5587 5592 5598 5602 5607 5613 5618 5622 5626 5631 5635 5638 5640 5644 5645 5649 5652 5655 5658 5659 5660 5661
5493 5491 5499 5503 5504 5502 5500 5498 5502 5513 5520 5521 5524 5530 5537 5542 5546 5552 5556 5561 5568 5576 5582 5587 5592 5598 5602 5608 5612 5616 5621 5625 5629 5633 5636 5640 5641 5643 5646 5648 5651 5653 5654 5655
5492 5500 5505 5502 5500 5499 5499 5498 5502 5508 5517 5522 5524 5528 5537 5544 5548 5553 5558 5562 5567 5573 5577 5583 5588 5593 5598 5602 5607 5613 5616 5621 5625 5629 5630 5632 5634 5636 5637 5640 5643 5646 5648 5649
5498 5503 5502 5500 5499 5500 5499 5511 5512 5511 5507 5511 5521 5517 5536 5544 5547 5551 5555 5559 5564 5569 5575 5579 5584 5589 5593 5598 5603 5607 5612 5617 5621 5624 5625 5627 5628 5630 5633 5636 5638 5640 5642 5644
5498 5502 5500 5499 5502 5505 5506 5514 5513 5513 5510 5510 5521 5516 5529 5541 5544 5548 5553 5557 5561 5566 5571 5575 5580 5585 5590 5594 5598 5603 5607 5611 5616 5620 5622 5624 5625 5627 5629 5631 5632 5634 5635 5637
5503 5506 5503 5503 5508 5509 5510 5511 5514 5516 5512 5511 5528 5525 5526 5533 5537 5544 5552 5555 5559 5564 5569 5573 5577 5582 5586 5590 5594 5598 5602 5607 5611 5615 5618 5620 5622 5623 5624 5625 5625 5627 5628 5629
5505 5508 5507 5507 5506 5510 5508 5505 5508 5512 5513 5521 5540 5533 5525 5533 5539 5545 5549 5552 5556 5561 5565 5569 5572 5576 5580 5584 5589 5594 5598 5602 5606 5610 5612 5615 5617 5618 5620 5620 5621 5621 5621 5623
5502 5505 5509 5510 5509 5509 5511 5511 5509 5516 5523 5531 5539 5530 5526 5533 5539 5543 5547 5550 5552 5556 5559 5562 5565 5569 5574 5578 5584 5589 5594 5596 5600 5603 5606 5609 5612 5614 5615 5616 5616 5617 5617 5618
5507 5508 5516 5517 5518 5515 5515 5515 5523 5519 5531 5534 5536 5533 5534 5535 5536 5539 5541 5544 5546 5549 5552 5555 5558 5563 5568 5573 5578 5582 5587 5590 5594 5598 5600 5602 5604 5606 5608 5609 5609 5610 5611 5612
5512 5509 5518 5522 5522 5522 5521 5523 5522 5523 5529 5535 5537 5530 5522 5525 5529 5533 5535 5536 5539 5542 5546 5549 5552 5556 5562 5567 5571 5575 5579 5583 5587 5590 5592 5594 5597 5599 5601 5601 5602 5603 5604 5604
5518 5513 5518 5522 5520 5521 5524 5527 5529 5531 5534 5534 5531 5521 5523 5524 5527 5528 5530 5532 5533 5536 5540 5543 5546 5550 5554 5559 5563 5567 5571 5575 5578 5581 5583 5586 5587 5590 5592 5593 5595 5595 5595 5596
5522 5520 5516 5525 5530 5530 5528 5530 5531 5528 5530 5539 5529 5516 5524 5525 5526 5527 5527 5528 5530 5532 5534 5537 5540 5543 5547 5550 5554 5558 5561 5564 5567 5570 5573 5576 5578 5579 5581 5582 5584 5586 5586 5586
5523 5523 5518 5524 5526 5530 5531 5534 5536 5536 5533 5532 5528 5517 5523 5523 5524 5525 5524 5524 5526 5528 5530 5532 5534 5536 5538 5541 5545 5547 5550 5553 5556 5559 5562 5564 5565 5567 5569 5571 5573 5575 5575 5575
5528 5523 5516 5517 5520 5527 5529 5534 5538 5534 5529 5531 5530 5522 5520 5521 5521 5521 5521 5521 5520 5522 5523 5524 5525 5527 5529 5531 5533 5535 5538 5540 5544 5546 5548 5550 5552 5553 5556 5558 5560 5561 5563 5563
5530 5523 5522 5525 5531 5531 5531 5534 5537 5535 5537 5532 5530 5528 5522 5520 5519 5518 5518 5518 5517 5516 5516 5516 5516 5517 5518 5520 5522 5523 5525 5527 5530 5532 5533 5535 5537 5539 5541 5542 5544 5547 5548 5549
5532 5527 5526 5526 5534 5535 5531 5534 5535 5535 5537 5535 5532 5524 5522 5521 5519 5516 5514 5514 5511 5510 5509 5508 5508 5508 5508 5509 5510 5511 5512 5514 5516 5517 5518 5520 5522 5524 5525 5527 5528 5530 5532 5533
5528 5527 5521 5524 5534 5535 5527 5529 5531 5531 5530 5530 5528 5523 5523 5518 5514 5509 5508 5507 5504 5503 5502 5500 5499 5498 5498 5498 5498 5498 5499 5501 5501 5502 5503 5504 5506 5508 5509 5511 5512 5513 5515 5517
5526 5526 5519 5522 5528 5521 5523 5529 5530 5529 5528 5528 5526 5523 5519 5513 5509 5506 5503 5499 5496 5495 5493 5491 5489 5489 5488 5488 5487 5486 5486 5486 5486 5487 5487 5488 5489 5490 5492 5493 5494 5496 5498 5500
5527 5526 5522 5519 5524 5531 5526 5526 5525 5525 5523 5523 5522 5519 5514 5510 5506 5499 5496 5493 5489 5486 5484 5481 5480 5479 5477 5476 5474 5473 5472 5471 5470 5470 5469 5469 5470 5471 5473 5473 5475 5477 5479 5481
5527 5526 5520 5522 5521 5528 5525 5524 5525 5521 5516 5517 5518 5514 5510 5506 5498 5490 5489 5487 5483 5480 5476 5473 5471 5468 5466 5463 5462 5459 5456 5454 5452 5452 5451 5451 5451 5452 5454 5455 5456 5458 5460 5462
5523 5522 5518 5518 5521 5526 5522 5522 5522 5516 5513 5512 5512 5508 5503 5496 5487 5483 5483 5479 5475 5471 5467 5464 5460 5456 5453 5450 5447 5443 5440 5437 5436 5435 5434 5433 5433 5434 5435 5436 5437 5439 5441 5443
5523 5522 5522 5522 5518 5517 5518 5519 5516 5510 5511 5510 5505 5500 5495 5489 5484 5480 5475 5470 5466 5461 5457 5453 5447 5443 5440 5436 5432 5428 5424 5422 5420 5418 5417 5415 5415 5415 5417 5417 5419 5420 5422 5425
5523 5522 5520 5520 5518 5517 5518 5516 5511 5510 5507 5504 5497 5493 5489 5483 5477 5472 5467 5462 5457 5452 5446 5441 5435 5431 5426 5421 5417 5412 5409 5406 5403 5400 5397 5396 5396 5396 5396 5398 5400 5401 5403 5406
5526 5523 5519 5518 5522 5520 5516 5513 5509 5506 5502 5497 5492 5486 5481 5475 5470 5464 5458 5452 5447 5441 5434 5429 5423 5417 5412 5407 5402 5397 5393 5389 5385 5382 5379 5378 5377 5377 5377 5378 5380 5382 5384 5387
5527 5520 5515 5516 5520 5518 5514 5509 5505 5500 5495 5489 5484 5479 5472 5466 5460 5454 5448 5442 5436 5430 5423 5417 5410 5404 5398 5392 5386 5381 5376 5371 5367 5363 5361 5359 5358 5358 5358 5359 5361 5364 5367 5369
5523 5519 5513 5515 5520 5516 5511 5507 5501 5494 5488 5482 5476 5469 5464 5457 5451 5444 5437 5431 5425 5418 5411 5403 5396 5389 5383 5377 5371 5365 5360 5354 5349 5346 5343 5341 5339 5339 5339 5341 5344 5348 5350 5354